Temperature
19 19 19 19 18 18 18 18 17 17 17 17 17 16 16 16 16 16 16 16 16 16 16 16 15 15 15 15 15 15 15 15 15 15 14 14 14 14 14 14 14 14 14
19 19 19 19 18 18 18 17 17 17 17 17 17 16 16 16 16 16 16 16 16 16 16 16 15 15 15 15 15 15 15 15 15 15 15 14 14 14 14 14 14 14 14
19 19 19 18 18 18 18 17 17 17 17 17 17 16 16 16 16 16 16 16 16 16 16 15 15 15 15 15 15 15 15 15 15 15 15 15 14 14 14 14 14 14 14
19 19 18 18 18 18 18 17 17 17 17 17 17 16 16 16 16 16 16 16 16 16 15 15 15 15 15 15 15 15 15 15 15 15 15 15 14 14 14 13 13 13 14
19 19 19 19 18 18 18 17 17 17 17 17 17 16 16 16 16 16 16 16 16 15 15 15 15 15 15 15 15 15 15 15 15 15 15 15 14 14 14 13 13 13 13
19 19 19 19 18 18 18 17 17 17 17 17 16 16 16 16 16 16 16 16 16 15 15 15 15 15 15 15 15 15 15 15 15 15 15 15 15 14 14 14 14 13 13
19 19 19 18 18 18 18 18 17 17 17 17 16 16 16 16 16 16 16 16 16 16 16 15 15 15 15 15 15 15 15 15 15 14 14 14 14 14 14 14 14 13 13
19 19 19 19 18 18 18 18 17 17 17 17 16 16 16 16 16 16 16 16 16 16 16 15 15 15 15 15 15 15 15 14 14 14 14 14 14 14 14 14 14 14 13
19 19 19 19 18 18 18 18 17 17 17 17 17 16 16 16 16 16 16 16 16 16 16 15 15 15 15 15 15 15 14 14 14 14 14 14 14 14 14 14 14 14 13
19 19 19 19 18 18 18 18 17 17 17 17 17 17 17 16 16 16 16 16 16 16 16 16 15 15 15 15 15 15 14 14 14 14 14 14 14 14 14 14 14 14 14
19 19 19 19 19 18 18 18 17 17 17 17 17 17 17 16 16 16 16 16 16 16 16 16 15 15 15 15 15 15 14 14 14 14 14 14 14 14 14 14 14 14 14
19 19 19 19 19 18 18 18 18 17 17 17 17 17 17 16 16 16 16 16 16 16 16 16 15 15 15 15 15 15 14 14 14 14 14 14 14 14 14 14 14 14 14
19 19 19 19 19 18 18 18 18 17 17 17 17 17 17 16 16 16 16 16 16 16 16 16 15 15 15 15 15 15 15 14 14 14 14 14 14 14 14 14 14 14 13
19 19 19 19 19 18 18 18 18 17 17 17 17 17 17 17 16 16 16 16 16 16 16 16 15 15 15 15 15 15 15 14 14 14 14 14 14 14 14 14 14 13 13
19 19 19 19 19 18 18 18 18 18 17 17 17 17 17 16 16 16 16 16 16 16 16 15 15 15 15 15 15 15 14 14 14 14 14 14 14 14 14 14 13 13 13
19 19 19 19 18 18 18 18 18 18 17 17 17 17 17 16 16 16 16 16 16 16 15 15 15 15 15 15 15 14 14 14 14 14 14 14 14 13 13 13 13 13 13
19 19 19 18 18 18 18 18 18 18 17 17 17 17 17 16 16 16 16 16 15 15 15 15 15 15 15 15 14 14 14 14 14 14 14 14 13 13 13 13 13 12 12
18 18 18 18 18 18 18 18 18 18 17 17 17 17 17 16 16 16 16 16 15 15 15 15 15 15 15 15 14 14 14 14 14 13 13 13 13 13 13 13 13 12 12
18 18 19 19 19 18 18 18 18 17 17 17 17 17 16 16 16 16 15 15 15 15 15 15 15 15 14 14 14 14 14 13 13 13 13 13 13 13 12 12 12 12 12
18 18 18 18 18 18 18 18 17 17 17 17 17 17 16 16 16 16 15 15 15 15 15 15 14 14 14 14 14 14 14 13 13 13 13 13 12 12 12 12 12 12 11
18 18 18 18 18 18 18 18 17 17 17 17 17 16 16 16 16 16 15 15 15 15 14 14 14 14 14 14 14 13 13 13 13 13 12 12 12 12 11 11 11 11 11
18 18 18 18 18 18 18 18 17 17 17 17 17 16 16 16 15 15 15 15 15 14 14 14 14 14 14 13 13 13 13 13 12 12 12 12 11 11 11 11 10 10 10
18 18 18 18 18 18 18 17 17 17 17 17 16 16 16 16 15 15 15 14 14 14 14 14 14 13 13 13 13 13 12 12 12 12 11 11 11 11 11 10 10 10 10
17 17 17 17 17 17 17 17 17 17 17 17 16 16 16 15 15 15 14 14 14 14 13 13 13 13 13 13 12 12 12 12 12 11 11 11 10 10 10 10 9 9 9
17 17 17 17 17 17 17 17 17 17 16 16 16 16 15 15 15 14 14 14 14 14 13 13 13 13 13 13 12 12 12 11 11 11 11 10 10 10 10 9 9 9 8
16 16 16 16 16 16 16 16 16 16 16 16 16 15 15 15 14 14 14 13 13 13 13 13 13 12 12 12 12 11 11 11 10 10 10 10 10 9 9 9 9 8 8
Wind_Speed
5 4 6 6 6 6 6 6 5 4 4 3 3 3 2 1 2 3 6 8 8 8 7 5 5 4 4 4 4 4 5 3 2 4 4 4 5 5 4 4 5 5 6
4 4 5 6 6 6 6 5 5 4 4 3 3 3 2 1 1 3 5 7 8 7 6 5 4 4 4 4 4 4 3 1 1 2 3 2 4 4 4 4 3 4 5
8 6 6 6 6 6 6 6 5 4 4 4 4 4 3 3 3 3 2 4 6 7 6 6 5 4 3 3 3 3 4 1 1 1 3 3 1 1 3 4 4 4 3
7 7 7 7 8 7 6 6 5 4 4 5 5 5 4 3 1 1 1 2 4 5 6 6 5 4 3 3 2 2 2 3 1 1 1 2 3 2 1 3 3 4 4
9 8 8 9 8 7 7 6 5 4 4 5 5 6 4 3 2 2 2 2 2 3 5 6 5 4 3 3 2 3 3 2 2 1 1 2 2 2 3 0 3 3 3
8 8 8 7 6 6 6 6 6 4 5 5 5 6 6 5 4 3 2 1 1 1 3 5 5 4 3 3 2 2 3 2 3 2 2 2 2 1 2 2 1 1 2
8 8 8 8 7 6 6 6 6 5 4 5 5 6 6 6 6 4 3 3 1 1 0 3 3 3 3 3 3 3 2 2 2 2 1 1 1 2 2 3 1 0 2
6 9 10 10 9 8 7 7 6 5 5 6 5 5 6 4 4 4 4 4 3 2 2 3 3 3 4 4 4 3 2 2 2 3 2 2 1 1 2 3 3 1 2
7 8 9 10 9 9 8 8 8 6 5 5 5 5 5 5 4 4 4 3 3 3 4 4 3 3 3 3 4 2 2 2 2 2 2 2 1 1 1 2 3 4 1
6 7 8 10 9 9 7 7 7 7 5 5 5 5 5 5 4 4 4 4 3 3 4 4 3 3 3 3 3 2 2 3 2 1 3 2 1 1 2 2 2 2 3
8 8 8 8 8 7 6 6 6 5 4 4 4 4 4 4 4 4 5 4 4 4 5 4 4 3 3 3 3 2 3 3 2 2 2 1 1 2 1 2 2 2 3
7 7 7 7 7 7 6 6 6 6 5 5 4 5 4 4 4 4 4 4 4 4 5 5 4 3 3 3 3 3 2 3 2 1 2 1 2 2 2 2 2 1 2
7 7 7 7 7 7 7 6 6 6 6 5 5 5 5 5 5 4 4 4 4 4 4 5 4 4 3 3 3 3 3 3 2 2 2 1 2 2 1 2 2 1 2
7 8 8 7 7 7 7 7 7 6 6 6 6 6 5 5 5 4 4 4 4 4 4 4 4 4 4 3 3 3 3 2 2 2 2 2 3 2 2 2 1 2 2
7 8 8 7 7 6 6 6 6 6 6 7 7 6 6 5 5 5 4 4 4 4 4 4 3 3 3 3 4 3 4 3 2 1 1 2 2 3 3 2 2 2 2
7 7 8 7 7 8 7 6 6 6 6 7 7 6 5 5 5 5 5 5 4 4 4 4 4 3 1 4 6 6 4 3 3 2 1 1 2 2 2 3 4 5 3
6 6 7 8 8 8 8 8 7 6 6 7 6 6 6 6 6 6 5 5 5 4 4 3 3 3 2 5 6 7 4 3 2 2 1 1 2 2 1 3 4 2 2
5 6 6 7 7 7 7 7 6 6 7 7 6 6 6 6 5 5 5 5 4 4 3 3 3 2 2 4 6 7 4 3 2 2 2 2 0 1 2 2 2 2 2
4 5 6 6 6 7 7 7 6 6 7 7 6 6 6 6 6 6 5 4 4 4 3 3 3 3 1 3 6 7 4 3 1 1 2 2 1 1 3 3 2 2 3
3 4 4 4 5 6 7 7 7 7 7 8 7 6 6 7 6 6 5 4 4 4 4 3 3 3 2 2 5 7 4 3 2 1 1 2 2 3 4 4 3 2 1
2 3 5 5 6 6 7 7 7 8 7 7 6 6 6 7 6 5 4 5 5 5 4 4 2 2 1 2 4 7 4 4 3 2 1 1 3 5 5 5 3 3 2
2 3 4 5 5 6 7 7 7 7 6 6 6 6 6 6 5 5 5 5 6 5 4 3 2 0 0 1 3 6 6 6 4 2 1 1 4 5 5 4 4 5 5
2 2 3 4 3 5 7 8 6 6 7 7 6 5 5 4 5 6 5 4 4 4 4 3 3 1 0 1 3 5 6 6 4 2 4 4 4 4 4 4 5 4 3
2 2 3 3 3 3 5 6 5 6 8 8 6 6 6 5 4 4 4 4 4 4 4 4 3 2 1 0 1 2 3 4 3 2 3 5 5 4 4 4 3 2 2
1 2 3 3 3 3 3 3 5 6 7 6 6 5 5 6 5 4 3 4 4 5 6 5 4 4 3 3 4 4 3 3 3 4 3 3 3 2 2 2 1 1 1
2 2 3 3 2 3 3 2 4 6 7 6 6 5 5 5 5 5 4 3 4 5 6 6 6 3 4 5 6 6 5 6 7 6 3 2 1 1 0 0 1 1 1
Wind_Direction
203 165 150 138 136 131 123 127 126 124 114 102 95 90 78 56 56 67 78 85 89 94 99 98 93 91 95 99 102 96 82 73 82 77 54 29 31 38 33 41 47 47 55
182 163 148 142 146 145 136 135 142 136 129 126 127 126 124 100 77 59 63 76 83 89 104 106 106 102 100 91 93 102 98 74 84 107 94 43 13 13 21 23 36 35 46
178 175 161 155 150 152 156 154 154 147 138 126 106 86 69 51 46 47 43 52 80 85 97 107 108 104 109 116 112 119 122 120 14 97 134 132 178 330 352 10 17 18 29
179 172 168 166 166 166 159 151 153 155 147 132 126 126 129 131 165 148 98 58 75 84 93 102 111 110 109 120 123 114 115 125 84 16 51 137 152 144 12 344 352 9 22
182 177 177 173 171 165 158 157 150 153 156 148 147 140 137 147 141 105 93 67 54 77 90 101 108 108 104 112 101 93 88 105 120 107 76 72 69 96 131 279 332 352 348
183 179 173 163 161 159 154 152 148 154 156 150 149 150 149 148 133 126 137 110 49 45 78 101 106 110 107 110 115 111 103 97 95 93 94 117 119 138 132 153 240 310 314
175 175 171 168 167 165 163 159 157 163 166 158 163 165 163 159 155 165 167 157 135 115 150 110 110 107 115 115 110 107 102 103 99 100 91 95 125 149 139 132 155 282 313
178 182 182 179 178 175 170 166 166 172 177 171 178 178 170 166 169 175 168 169 176 186 155 125 122 120 118 108 99 96 102 102 104 95 93 84 64 109 136 147 140 87 358
183 187 184 182 180 178 178 174 170 172 180 176 178 178 177 176 178 179 171 174 183 164 141 132 128 118 112 107 103 97 94 101 101 96 93 85 52 74 93 120 140 141 127
189 188 185 186 185 184 180 173 171 176 181 173 177 176 180 184 179 163 166 170 171 151 140 142 138 126 109 106 108 104 99 96 79 93 90 73 47 68 71 94 105 127 146
194 191 187 185 181 176 174 170 169 170 170 173 176 169 173 167 162 160 172 170 164 153 149 154 148 144 137 123 117 119 116 107 83 71 90 71 62 63 50 66 78 90 121
185 183 181 175 170 174 180 182 178 178 181 177 171 171 168 158 156 168 173 162 159 154 151 150 150 157 154 138 133 137 133 138 139 128 100 64 79 64 47 68 74 84 117
173 171 169 173 181 183 184 188 185 189 187 173 168 166 165 164 170 175 171 157 149 143 142 145 154 164 160 147 151 148 145 146 154 150 143 150 112 86 63 81 82 75 84
174 172 175 183 186 186 185 187 190 191 182 168 164 172 181 177 177 169 160 151 142 139 142 146 153 158 151 145 144 137 131 131 130 141 155 163 156 165 160 122 116 101 82
178 179 183 187 186 183 184 187 188 190 181 169 172 184 183 174 164 158 157 151 145 146 145 136 126 132 142 150 146 142 140 135 122 101 120 136 142 165 162 146 156 131 111
188 188 187 186 187 188 188 187 189 191 177 175 183 183 172 165 163 162 155 148 147 148 142 145 141 134 150 144 144 142 139 137 137 131 67 81 69 67 93 118 136 143 146
192 188 190 193 193 191 185 186 190 180 171 176 181 177 170 167 173 167 155 156 162 156 146 158 155 157 173 151 145 145 141 133 142 146 126 95 64 66 72 62 68 77 113
198 203 198 199 196 189 185 181 173 171 172 175 178 175 168 169 168 160 161 165 160 156 157 167 170 160 177 157 151 143 131 123 137 154 155 139 61 98 121 97 68 35 15
196 203 202 197 185 181 178 167 169 171 170 177 181 181 174 170 167 168 170 162 153 155 155 152 153 156 192 154 151 141 123 113 117 119 119 132 122 89 123 115 101 44 6
187 196 191 179 173 181 170 162 169 172 183 187 186 179 171 172 174 175 167 153 150 155 147 132 138 151 168 150 149 145 130 123 110 67 51 80 101 97 110 121 118 96 359
203 184 173 182 188 177 165 169 171 187 193 180 169 166 171 174 172 165 156 151 150 144 141 139 133 139 164 157 147 145 139 144 132 108 61 38 84 94 101 109 111 111 100
197 176 175 193 191 171 166 171 189 195 173 159 159 165 169 170 165 156 154 150 148 146 151 144 129 73 249 153 152 148 146 141 135 149 162 115 99 95 94 95 87 82 78
194 186 174 183 190 178 174 182 196 175 160 156 161 163 157 155 149 153 154 146 150 156 163 158 158 157 51 78 134 144 141 144 139 140 125 113 106 97 86 75 73 74 76
191 175 153 162 191 188 178 184 176 160 156 159 159 153 148 142 134 138 148 150 158 164 166 167 170 157 117 131 125 129 129 131 129 125 106 97 93 89 76 61 53 63 84
207 163 162 172 195 178 170 168 155 149 150 153 150 146 147 145 136 130 133 149 162 172 171 177 173 163 176 196 166 152 148 153 146 122 89 75 71 70 56 47 41 45 55
177 163 159 154 164 153 147 145 149 151 150 150 152 153 149 147 147 141 120 89 116 127 142 147 150 153 154 139 140 138 131 129 130 114 103 109 112 122 126 86 23 28 22
Height
1547 1548 1550 1551 1552 1553 1554 1555 1556 1556 1557 1558 1558 1558 1559 1559 1559 1560 1560 1560 1560 1560 1560 1560 1559 1559 1559 1559 1559 1559 1558 1558 1558 1558 1558 1559 1559 1558 1558 1557 1556 1555 1554
1546 1548 1549 1550 1552 1553 1554 1555 1556 1557 1557 1558 1558 1559 1559 1560 1560 1560 1560 1560 1560 1560 1561 1561 1560 1560 1560 1560 1560 1560 1559 1560 1560 1560 1559 1560 1561 1559 1559 1558 1557 1556 1555
1544 1546 1548 1550 1551 1552 1554 1555 1556 1557 1558 1558 1559 1559 1560 1560 1560 1561 1561 1561 1561 1561 1561 1561 1561 1561 1561 1561 1561 1561 1560 1560 1560 1560 1560 1560 1560 1560 1560 1559 1558 1557 1556
1543 1545 1547 1548 1550 1552 1553 1555 1556 1557 1558 1559 1559 1559 1560 1560 1561 1561 1561 1562 1562 1562 1562 1562 1562 1562 1562 1561 1561 1561 1561 1561 1561 1561 1560 1561 1560 1560 1560 1560 1559 1558 1557
1541 1543 1545 1547 1549 1551 1552 1554 1555 1556 1557 1558 1559 1560 1560 1560 1561 1562 1562 1562 1562 1563 1563 1562 1562 1562 1562 1562 1562 1562 1562 1562 1561 1561 1561 1560 1560 1560 1560 1560 1560 1559 1558
1540 1542 1544 1547 1549 1550 1552 1553 1555 1556 1557 1558 1559 1560 1560 1561 1561 1562 1562 1562 1563 1563 1563 1563 1563 1563 1563 1563 1563 1562 1562 1562 1562 1561 1561 1561 1560 1560 1560 1560 1559 1559 1559
1539 1541 1543 1545 1547 1549 1551 1552 1554 1555 1556 1557 1558 1559 1560 1561 1561 1562 1562 1563 1563 1563 1563 1564 1563 1563 1563 1563 1563 1563 1562 1562 1562 1562 1561 1561 1560 1560 1560 1560 1559 1559 1559
1537 1539 1541 1544 1546 1548 1550 1551 1552 1554 1555 1556 1557 1559 1560 1560 1561 1562 1562 1563 1563 1564 1564 1564 1564 1564 1564 1563 1563 1563 1563 1563 1562 1562 1562 1561 1561 1561 1560 1560 1560 1559 1559
1536 1538 1540 1542 1544 1546 1548 1550 1551 1553 1554 1555 1557 1558 1559 1560 1561 1562 1562 1563 1563 1564 1564 1564 1564 1564 1564 1564 1564 1563 1563 1563 1562 1562 1562 1562 1561 1561 1560 1560 1560 1560 1559
1534 1537 1539 1541 1543 1545 1547 1549 1550 1552 1553 1554 1556 1557 1558 1559 1560 1561 1562 1563 1563 1564 1564 1564 1564 1564 1564 1564 1564 1563 1563 1563 1563 1562 1562 1562 1561 1561 1560 1560 1559 1559 1559
1533 1535 1537 1539 1542 1544 1546 1548 1549 1551 1552 1553 1555 1556 1557 1558 1559 1560 1561 1562 1563 1563 1564 1564 1564 1564 1564 1564 1564 1564 1563 1563 1563 1563 1562 1562 1561 1561 1560 1560 1559 1559 1559
1532 1534 1536 1539 1541 1543 1545 1546 1548 1549 1551 1552 1554 1555 1556 1557 1558 1559 1560 1561 1562 1563 1563 1564 1564 1564 1564 1564 1564 1564 1563 1563 1563 1563 1562 1562 1561 1561 1560 1560 1559 1559 1558
1531 1533 1535 1537 1539 1541 1543 1545 1547 1548 1550 1551 1552 1554 1555 1556 1557 1558 1559 1560 1561 1562 1563 1563 1563 1563 1563 1563 1563 1563 1563 1563 1562 1562 1562 1562 1561 1560 1560 1559 1559 1558 1558
1530 1531 1533 1536 1538 1540 1541 1543 1545 1546 1548 1549 1551 1552 1553 1554 1555 1557 1558 1559 1560 1561 1561 1562 1562 1562 1563 1563 1563 1562 1562 1562 1562 1561 1561 1561 1560 1560 1559 1559 1558 1558 1557
1528 1530 1532 1534 1536 1538 1539 1541 1543 1544 1546 1548 1549 1550 1552 1553 1554 1555 1556 1558 1559 1559 1560 1561 1561 1561 1561 1562 1562 1562 1561 1561 1561 1561 1560 1560 1560 1559 1558 1558 1557 1557 1556
1527 1529 1530 1532 1534 1535 1537 1539 1541 1542 1544 1545 1547 1549 1550 1551 1552 1553 1555 1556 1557 1558 1559 1559 1559 1560 1560 1560 1560 1560 1560 1560 1560 1560 1559 1559 1558 1558 1558 1557 1557 1556 1555
1526 1527 1528 1530 1531 1533 1534 1536 1538 1540 1542 1543 1545 1546 1548 1549 1550 1552 1553 1554 1555 1556 1557 1557 1558 1558 1558 1559 1559 1559 1559 1559 1559 1559 1558 1558 1557 1557 1557 1556 1556 1555 1554
1524 1526 1526 1528 1529 1531 1533 1534 1536 1538 1539 1541 1543 1544 1546 1547 1548 1549 1551 1552 1553 1553 1554 1555 1556 1556 1557 1557 1557 1557 1557 1557 1557 1557 1556 1556 1556 1555 1555 1555 1554 1553 1553
1523 1523 1524 1526 1527 1529 1531 1532 1534 1535 1537 1538 1540 1542 1543 1545 1546 1547 1548 1549 1550 1551 1552 1553 1553 1554 1554 1555 1555 1555 1555 1555 1555 1555 1554 1554 1554 1554 1553 1553 1552 1551 1551
1521 1522 1522 1524 1525 1527 1529 1530 1531 1533 1534 1535 1537 1539 1541 1542 1543 1544 1546 1547 1548 1549 1550 1551 1551 1552 1552 1552 1553 1553 1553 1553 1553 1553 1553 1552 1552 1552 1551 1551 1550 1549 1549
1519 1520 1521 1522 1523 1525 1526 1527 1529 1530 1532 1534 1535 1537 1538 1540 1541 1542 1543 1545 1546 1547 1548 1548 1549 1550 1550 1550 1550 1551 1551 1551 1551 1551 1551 1550 1550 1550 1549 1549 1548 1547 1547
1517 1518 1519 1520 1522 1523 1524 1525 1526 1528 1530 1531 1533 1534 1536 1537 1539 1540 1541 1542 1543 1544 1545 1546 1547 1547 1548 1548 1548 1548 1549 1549 1549 1548 1548 1548 1548 1548 1548 1547 1546 1546 1545
1515 1516 1517 1518 1520 1521 1522 1522 1524 1526 1527 1528 1530 1532 1533 1535 1536 1537 1538 1539 1541 1542 1542 1543 1544 1545 1545 1546 1546 1546 1546 1546 1546 1546 1546 1546 1546 1546 1545 1545 1544 1544 1543
1513 1514 1515 1516 1517 1518 1519 1520 1522 1523 1525 1526 1527 1529 1530 1532 1534 1535 1536 1537 1538 1539 1540 1540 1541 1542 1542 1543 1543 1543 1544 1544 1544 1544 1544 1544 1544 1544 1543 1542 1542 1541 1540
1511 1512 1513 1513 1515 1516 1517 1518 1520 1521 1522 1524 1525 1526 1528 1529 1531 1532 1533 1534 1535 1536 1537 1538 1539 1539 1540 1541 1542 1541 1542 1542 1542 1542 1542 1541 1541 1541 1540 1540 1539 1538 1538
1509 1510 1510 1511 1512 1513 1514 1516 1517 1518 1520 1521 1522 1524 1525 1527 1528 1529 1531 1532 1533 1534 1535 1536 1537 1537 1538 1539 1539 1539 1540 1540 1540 1540 1539 1538 1538 1538 1538 1537 1536 1536 1535